�N����,����,�~����,�C��,���x,�C��,����,���ϕ���,�ő�u�ԕ���,�ő厞����,���˗�,�I�_���x,�n�����x,�ő啗���N��,DTYPE
"17/06/27","00:10",0.0,20.9,78.9,1003.6,324.8,2.6,4.5,344.2,0.00,17.1,22.8,"00:00:56",1
"17/06/27","00:20",0.0,20.8,78.9,1003.6,321.1,2.5,5.0,336.0,0.00,17.0,22.7,"00:10:40",1
"17/06/27","00:30",0.0,20.7,79.3,1003.8,327.3,2.5,3.4,338.8,0.00,17.0,22.6,"00:21:20",1
"17/06/27","00:40",0.0,20.7,79.4,1003.4,328.8,3.0,4.5,338.4,0.00,17.0,22.7,"00:37:28",1
"17/06/27","00:50",0.0,20.7,79.1,1003.8,326.5,3.4,5.0,334.0,0.00,17.0,22.5,"00:41:36",1
"17/06/27","01:00",0.0,20.5,79.8,1003.4,320.9,2.1,4.0,334.4,0.00,16.9,22.5,"00:50:40",1
"17/06/27","01:10",0.0,20.3,80.6,1003.4,320.8,2.0,4.1,333.2,0.00,16.9,22.5,"01:08:00",1
"17/06/27","01:20",0.0,20.3,80.8,1003.6,327.3,2.5,4.1,327.4,0.00,16.9,22.5,"01:12:40",1
"17/06/27","01:30",0.0,20.3,80.7,1003.4,329.2,2.5,4.7,339.2,0.00,16.9,22.5,"01:26:08",1
"17/06/27","01:40",0.0,20.2,80.8,1003.4,325.3,2.5,4.0,330.6,0.00,16.8,22.5,"01:36:08",1
"17/06/27","01:50",0.0,20.2,80.9,1003.4,330.6,3.0,4.8,334.3,0.00,16.9,22.2,"01:46:40",1
"17/06/27","02:00",0.0,20.2,81.0,1003.6,332.1,2.8,4.2,320.9,0.00,16.9,22.2,"01:56:00",1
"17/06/27","02:10",0.0,20.2,81.3,1003.8,324.8,2.1,3.2,307.5,0.00,16.9,22.3,"02:07:04",1
"17/06/27","02:20",0.0,20.1,81.4,1003.8,331.1,2.6,4.3,339.3,0.00,16.9,22.3,"02:12:08",1
"17/06/27","02:30",0.0,20.1,81.4,1003.8,336.8,2.2,4.2,329.0,0.00,16.9,22.2,"02:27:04",1
"17/06/27","02:40",0.0,20.0,81.7,1003.6,334.5,2.3,3.9,340.3,0.00,16.8,22.0,"02:38:48",1
"17/06/27","02:50",0.0,20.0,82.0,1003.8,329.7,2.5,4.7,339.2,0.00,16.9,22.2,"02:42:56",1
"17/06/27","03:00",0.0,20.0,82.2,1004.1,334.8,2.3,3.9,338.5,0.00,16.9,22.1,"02:53:04",1
"17/06/27","03:10",0.0,19.9,82.6,1003.8,330.1,2.1,3.5,317.2,0.00,16.9,22.1,"03:00:02",1
"17/06/27","03:20",0.0,19.9,82.6,1004.1,331.2,2.8,5.2,348.9,0.00,16.9,21.9,"03:16:48",1
"17/06/27","03:30",0.0,19.9,82.5,1004.3,325.1,2.6,4.3,319.0,0.00,16.9,22.0,"03:24:40",1
"17/06/27","03:40",0.0,19.9,82.8,1004.3,334.6,2.3,4.7,346.9,0.00,16.9,21.9,"03:32:24",1
"17/06/27","03:50",0.0,19.8,83.1,1004.3,331.2,2.5,4.3,338.5,0.00,16.9,21.8,"03:46:16",1
"17/06/27","04:00",0.0,19.8,83.2,1004.3,326.8,2.8,4.8,339.1,0.00,16.9,21.8,"03:56:08",1
"17/06/27","04:10",0.0,19.8,83.0,1004.5,327.6,2.8,4.7,337.2,0.00,16.9,21.8,"04:09:20",1
"17/06/27","04:20",0.0,19.8,82.7,1004.5,331.2,3.1,4.2,343.3,0.00,16.8,21.7,"04:11:20",1
"17/06/27","04:30",0.0,19.7,83.1,1004.3,329.9,2.5,3.9,327.4,0.00,16.8,21.7,"04:27:44",1
"17/06/27","04:40",0.0,19.6,83.5,1004.8,330.3,2.8,5.0,344.1,0.00,16.8,21.6,"04:33:20",1
"17/06/27","04:50",0.0,19.5,84.1,1004.8,328.4,2.7,4.8,331.2,0.00,16.8,21.7,"04:46:08",1
"17/06/27","05:00",0.0,19.5,84.7,1005.0,328.5,2.6,4.5,333.5,0.00,16.9,21.7,"04:58:48",1
"17/06/27","05:10",0.0,19.6,84.9,1005.0,328.6,2.7,5.1,338.9,0.00,17.0,21.6,"05:04:24",1
"17/06/27","05:20",0.0,19.6,85.3,1004.8,335.6,2.0,4.5,337.0,0.00,17.1,21.6,"05:13:36",1
"17/06/27","05:30",0.0,19.6,85.5,1004.8,331.3,2.6,4.3,326.9,0.00,17.1,21.7,"05:24:00",1
"17/06/27","05:40",0.0,19.6,85.7,1004.8,327.9,2.7,4.4,336.1,0.00,17.2,21.6,"05:32:48",1
"17/06/27","05:50",0.0,19.6,85.9,1005.0,335.1,2.1,4.0,345.3,0.00,17.2,21.6,"05:44:40",1
"17/06/27","06:00",0.0,19.7,85.8,1005.0,330.5,2.1,3.6,342.6,0.00,17.3,21.6,"05:56:40",1
"17/06/27","06:10",0.0,19.8,85.8,1004.8,326.3,2.2,4.2,339.7,0.01,17.4,21.5,"06:04:16",1
"17/06/27","06:20",0.0,20.0,85.4,1005.2,330.4,2.1,3.7,320.7,0.03,17.5,21.4,"06:14:32",1
"17/06/27","06:30",0.0,20.1,85.3,1005.0,334.2,2.1,4.8,342.2,0.02,17.6,21.6,"06:26:48",1
"17/06/27","06:40",0.0,20.0,84.9,1005.2,327.8,2.7,4.5,336.0,0.02,17.4,21.7,"06:33:36",1
"17/06/27","06:50",0.0,20.0,85.3,1005.2,326.8,2.1,3.5,327.6,0.02,17.5,21.4,"06:43:04",1
"17/06/27","07:00",0.0,20.1,85.3,1005.2,330.2,2.3,3.9,337.7,0.03,17.6,21.5,"06:54:56",1
"17/06/27","07:10",0.0,20.2,85.4,1005.0,334.0,2.3,4.0,334.9,0.03,17.7,21.4,"07:02:16",1
"17/06/27","07:20",0.0,20.3,85.2,1005.2,326.4,1.8,3.2,318.3,0.03,17.8,21.4,"07:17:12",1
"17/06/27","07:30",0.0,20.3,84.7,1005.7,326.2,2.2,4.0,339.9,0.03,17.7,21.5,"07:28:00",1
"17/06/27","07:40",0.0,20.4,84.3,1005.7,321.4,2.1,4.1,335.7,0.03,17.7,21.6,"07:39:52",1
"17/06/27","07:50",0.0,20.4,83.9,1005.0,331.6,2.7,4.3,336.2,0.03,17.6,21.7,"07:48:48",1
"17/06/27","08:00",0.0,20.5,84.0,1005.2,329.4,2.3,3.9,329.4,0.05,17.7,21.6,"07:59:20",1
"17/06/27","08:10",0.0,20.8,84.2,1005.0,321.7,2.2,4.1,331.2,0.08,18.1,21.7,"08:02:16",1
"17/06/27","08:20",0.0,20.9,83.2,1005.5,326.6,2.8,4.4,328.5,0.09,18.0,21.7,"08:14:40",1
"17/06/27","08:30",0.0,21.2,81.3,1005.5,291.8,1.6,3.9,324.6,0.10,17.9,21.7,"08:28:48",1
"17/06/27","08:40",0.0,21.7,80.3,1005.0,323.8,2.3,5.5,338.7,0.13,18.2,21.8,"08:33:12",1
"17/06/27","08:50",0.0,21.9,79.8,1005.5,297.8,1.2,2.5,337.3,0.11,18.3,21.9,"08:48:48",1
"17/06/27","09:00",0.0,22.1,78.9,1005.2,317.8,1.7,3.3,340.0,0.09,18.3,22.0,"08:53:52",1
"17/06/27","09:10",0.0,22.1,78.8,1005.7,321.4,1.6,2.7,330.8,0.11,18.3,22.0,"09:07:04",1
"17/06/27","09:20",0.0,22.6,78.3,1005.2,313.0,1.0,2.4,330.4,0.14,18.7,22.2,"09:17:52",1
"17/06/27","09:30",0.0,22.9,77.9,1005.2,335.4,2.2,3.7,331.9,0.16,18.9,22.2,"09:23:12",1
"17/06/27","09:40",0.0,23.3,75.3,1005.2,286.3,0.8,2.4,327.5,0.18,18.7,22.2,"09:30:40",1
"17/06/27","09:50",0.0,23.8,75.5,1005.5,325.9,1.5,3.3,335.9,0.23,19.3,22.4,"09:44:08",1
"17/06/27","10:00",0.0,24.6,70.2,1005.0,202.1,0.7,1.4,227.5,0.32,18.9,22.5,"09:52:08",1
"17/06/27","10:10",0.0,24.5,70.8,1005.0,284.5,0.6,1.7,338.4,0.26,18.9,22.6,"10:05:04",1
"17/06/27","10:20",0.0,25.1,67.1,1004.8,225.6,0.3,1.0,180.3,0.29,18.6,22.9,"10:17:44",1
"17/06/27","10:30",0.0,25.7,65.8,1004.8,339.4,0.7,1.7,327.1,0.33,18.9,22.8,"10:25:44",1
"17/06/27","10:40",0.0,25.4,65.9,1004.3,117.7,0.7,1.7,143.9,0.29,18.6,23.1,"10:37:36",1
"17/06/27","10:50",0.0,25.9,65.7,1003.8,343.1,0.7,2.4,355.0,0.30,19.0,23.2,"10:46:08",1
"17/06/27","11:00",0.0,25.7,64.0,1003.8,341.7,1.1,2.7,336.0,0.30,18.4,23.4,"10:54:56",1
"17/06/27","11:10",0.0,25.9,62.8,1003.8,173.6,0.2,0.9,236.5,0.22,18.3,23.6,"11:08:48",1
"17/06/27","11:20",0.0,25.6,64.2,1003.8,345.8,0.7,1.7,39.9,0.15,18.4,23.8,"11:17:36",1
"17/06/27","11:30",0.0,25.8,65.0,1003.8,343.7,0.6,2.0,335.2,0.15,18.8,23.6,"11:22:56",1
"17/06/27","11:40",0.0,25.7,64.7,1003.4,184.1,0.5,1.0,122.9,0.15,18.6,23.9,"11:38:32",1
"17/06/27","11:50",0.0,26.2,64.9,1003.4,341.0,0.6,1.9,342.2,0.21,19.1,23.9,"11:43:44",1
"17/06/27","12:00",0.0,26.5,63.6,1003.1,339.9,0.5,1.3,319.6,0.23,19.1,23.9,"11:59:44",1
"17/06/27","12:10",0.0,26.3,64.5,1003.8,320.2,0.6,1.4,39.1,0.21,19.1,24.0,"12:01:44",1
"17/06/27","12:20",0.0,26.5,61.7,1003.1,301.1,0.3,1.0,332.0,0.19,18.6,23.8,"12:11:04",1
"17/06/27","12:30",0.0,26.8,61.1,1003.4,217.7,0.3,0.8,259.7,0.24,18.7,24.3,"12:22:16",1
"17/06/27","12:40",0.0,27.1,62.1,1003.1,208.2,0.5,1.2,213.2,0.22,19.3,24.0,"12:37:36",1
"17/06/27","12:50",0.0,27.0,59.5,1003.1,25.2,0.5,1.3,331.8,0.18,18.5,24.3,"12:40:48",1
"17/06/27","13:00",0.0,27.0,58.5,1003.4,13.9,0.6,1.7,13.8,0.18,18.2,24.4,"12:56:16",1
"17/06/27","13:10",0.0,27.3,61.7,1003.4,333.7,0.5,1.4,354.6,0.20,19.3,24.4,"13:09:20",1
"17/06/27","13:20",0.0,27.3,59.0,1003.4,295.0,0.5,1.4,310.1,0.21,18.6,24.6,"13:11:44",1
"17/06/27","13:30",0.0,27.3,60.8,1003.6,320.2,0.7,2.2,343.8,0.22,19.1,24.5,"13:24:24",1
"17/06/27","13:40",0.0,27.7,58.2,1003.1,184.0,0.3,1.1,181.6,0.24,18.8,24.7,"13:36:56",1
"17/06/27","13:50",0.0,28.1,56.4,1003.4,31.3,0.7,1.8,340.5,0.29,18.7,24.7,"13:44:24",1
"17/06/27","14:00",0.0,28.8,53.9,1003.6,143.7,0.6,1.7,227.8,0.43,18.6,24.7,"13:54:40",1
"17/06/27","14:10",0.0,29.7,53.4,1003.8,264.5,0.3,1.0,322.1,0.46,19.3,24.8,"14:00:16",1
"17/06/27","14:20",0.0,29.5,54.8,1003.8,301.7,1.1,2.9,344.6,0.53,19.5,25.1,"14:18:08",1
"17/06/27","14:30",0.0,29.8,52.2,1003.6,3.8,1.1,3.1,341.2,0.46,19.0,25.3,"14:20:56",1
"17/06/27","14:40",0.0,30.1,50.5,1004.1,2.3,0.7,2.2,3.2,0.48,18.7,25.5,"14:34:16",1
"17/06/27","14:50",0.0,29.6,52.8,1004.1,50.7,0.8,1.7,129.7,0.33,19.0,25.8,"14:42:48",1
"17/06/27","15:00",0.0,29.7,50.0,1004.1,285.0,0.7,1.3,317.9,0.33,18.2,25.7,"14:52:16",1
"17/06/27","15:10",0.0,29.5,50.6,1004.1,351.0,1.0,2.0,309.9,0.25,18.2,25.8,"15:04:32",1
"17/06/27","15:20",0.0,29.3,51.4,1003.8,317.9,1.1,2.7,339.0,0.26,18.3,25.8,"15:12:08",1
"17/06/27","15:30",0.0,29.2,48.8,1004.1,271.1,0.7,1.3,329.7,0.22,17.4,25.7,"15:21:20",1
"17/06/27","15:40",0.0,29.8,50.7,1003.8,189.0,0.8,2.4,226.8,0.28,18.5,25.7,"15:38:16",1
"17/06/27","15:50",0.0,28.9,52.3,1004.1,219.8,0.7,1.7,225.0,0.16,18.2,25.9,"15:46:00",1
"17/06/27","16:00",0.0,28.6,56.0,1003.6,275.8,0.6,1.9,324.7,0.11,19.0,26.0,"15:51:12",1
"17/06/27","16:10",0.0,28.2,57.3,1003.4,262.0,0.6,1.6,223.8,0.09,19.0,25.9,"16:07:44",1
"17/06/27","16:20",0.0,28.3,55.5,1003.1,270.3,0.7,2.0,214.1,0.08,18.6,26.0,"16:18:16",1
"17/06/27","16:30",0.0,28.1,56.3,1002.6,273.4,0.6,1.3,229.9,0.06,18.6,26.0,"16:20:16",1
"17/06/27","16:40",0.0,27.9,56.0,1002.4,284.9,0.7,1.9,309.3,0.05,18.4,25.7,"16:34:24",1
"17/06/27","16:50",0.0,27.7,58.6,1002.4,334.9,1.5,2.5,345.6,0.05,18.9,25.7,"16:42:48",1
"17/06/27","17:00",0.0,27.3,66.4,1002.6,334.1,1.0,1.7,339.0,0.08,20.5,25.6,"16:52:08",1
"17/06/27","17:10",0.0,27.4,63.9,1003.1,337.2,0.8,1.7,344.3,0.05,20.0,25.5,"17:00:08",1
"17/06/27","17:20",0.0,27.4,64.9,1003.4,344.1,1.0,1.9,336.6,0.05,20.3,25.5,"17:18:56",1
"17/06/27","17:30",0.0,27.1,66.7,1003.8,331.8,1.3,2.4,337.3,0.04,20.4,25.6,"17:27:04",1
"17/06/27","17:40",0.0,26.6,66.3,1003.8,329.9,1.3,2.4,336.8,0.03,19.8,25.4,"17:39:52",1
"17/06/27","17:50",0.0,26.4,68.3,1003.8,329.6,1.8,2.7,330.8,0.02,20.1,25.5,"17:45:52",1
"17/06/27","18:00",0.0,26.2,69.6,1004.1,335.7,1.6,2.5,340.6,0.01,20.2,25.3,"17:55:28",1
"17/06/27","18:10",0.0,25.9,69.6,1004.1,333.6,1.6,2.8,337.4,0.01,20.0,25.3,"18:04:00",1
"17/06/27","18:20",0.0,25.7,68.7,1004.5,337.3,1.6,2.8,319.6,0.00,19.6,25.2,"18:19:28",1
"17/06/27","18:30",0.0,25.6,69.1,1004.3,317.4,1.8,3.7,339.8,0.00,19.6,25.2,"18:26:48",1
"17/06/27","18:40",0.0,25.5,70.2,1004.3,274.3,0.7,1.2,257.2,0.00,19.7,25.1,"18:30:08",1
"17/06/27","18:50",0.0,25.4,72.0,1004.3,341.6,0.8,1.4,339.7,0.00,20.0,24.8,"18:49:52",1
"17/06/27","19:00",0.0,25.1,73.8,1004.1,330.7,1.2,1.8,341.5,0.00,20.1,24.9,"18:50:48",1
"17/06/27","19:10",0.0,24.8,73.3,1004.8,320.8,1.2,2.1,334.2,0.00,19.7,24.7,"19:06:40",1
"17/06/27","19:20",0.0,24.7,73.5,1005.0,308.7,1.2,2.1,328.3,0.00,19.7,24.9,"19:15:28",1
"17/06/27","19:30",0.0,24.6,73.8,1005.0,293.6,1.2,2.6,333.0,0.00,19.7,24.6,"19:29:36",1
"17/06/27","19:40",0.0,24.6,73.9,1004.8,336.2,1.7,2.9,332.1,0.00,19.7,24.5,"19:30:56",1
"17/06/27","19:50",0.0,24.5,74.4,1005.0,308.4,0.7,1.2,331.9,0.00,19.7,24.4,"19:41:36",1
"17/06/27","20:00",0.0,24.4,74.0,1005.0,284.0,1.0,1.7,304.2,0.00,19.5,24.6,"19:53:12",1
"17/06/27","20:10",0.0,24.3,74.1,1005.2,293.1,1.2,2.1,313.4,0.00,19.4,24.4,"20:08:56",1
"17/06/27","20:20",0.0,24.3,74.0,1005.0,318.9,1.1,2.0,333.7,0.00,19.4,24.2,"20:18:40",1
"17/06/27","20:30",0.0,24.2,75.3,1005.2,331.1,1.3,2.4,343.8,0.00,19.6,24.3,"20:25:28",1
"17/06/27","20:40",0.0,24.1,75.8,1005.2,325.2,1.5,2.6,313.6,0.00,19.6,24.2,"20:30:02",1
"17/06/27","20:50",0.0,24.1,75.1,1005.7,315.4,1.8,3.4,324.8,0.00,19.5,23.8,"20:43:04",1
"17/06/27","21:00",0.0,24.1,75.4,1005.5,303.8,1.2,2.9,331.4,0.00,19.5,24.2,"20:53:04",1
"17/06/27","21:10",0.0,23.9,76.3,1006.0,295.8,1.2,1.8,313.4,0.00,19.5,24.1,"21:06:00",1
"17/06/27","21:20",0.0,23.8,77.1,1006.0,319.6,1.5,2.5,318.2,0.00,19.6,24.0,"21:16:32",1
"17/06/27","21:30",0.0,23.7,77.8,1006.0,295.0,1.0,1.9,327.4,0.00,19.6,23.8,"21:23:20",1
"17/06/27","21:40",0.0,23.5,78.6,1006.2,273.6,0.8,1.3,251.5,0.00,19.6,23.7,"21:38:32",1
"17/06/27","21:50",0.0,23.4,79.4,1006.0,279.4,1.1,1.7,271.5,0.00,19.7,23.9,"21:46:24",1
"17/06/27","22:00",0.0,23.2,80.2,1006.2,277.8,1.3,2.0,293.2,0.00,19.6,23.7,"21:53:12",1
"17/06/27","22:10",0.0,23.1,81.3,1006.0,310.6,1.3,2.1,310.4,0.00,19.8,23.9,"22:09:52",1
"17/06/27","22:20",0.0,23.0,82.4,1006.0,312.5,1.6,2.7,322.2,0.00,19.9,23.8,"22:17:52",1
"17/06/27","22:30",0.0,23.0,82.7,1006.4,304.5,1.6,2.8,338.2,0.00,19.9,23.7,"22:23:12",1
"17/06/27","22:40",0.0,22.9,83.2,1006.2,293.7,1.1,1.9,324.1,0.00,19.9,23.6,"22:32:24",1
"17/06/27","22:50",0.0,22.7,84.0,1006.4,288.9,0.8,1.4,308.2,0.00,19.9,23.5,"22:40:56",1
"17/06/27","23:00",0.0,22.5,85.1,1006.2,282.8,0.8,1.2,293.4,0.00,19.9,23.5,"22:58:48",1
"17/06/27","23:10",0.0,22.2,86.4,1006.2,296.5,1.1,1.9,322.6,0.00,19.9,23.5,"23:09:52",1
"17/06/27","23:20",0.0,22.0,87.7,1006.4,308.3,2.0,3.3,333.0,0.00,19.9,23.2,"23:12:40",1
"17/06/27","23:30",0.0,21.9,88.5,1006.7,289.0,1.0,1.4,326.2,0.00,20.0,23.4,"23:23:12",1
"17/06/27","23:40",0.0,21.8,89.3,1006.7,293.5,1.2,1.7,305.0,0.00,20.0,23.2,"23:33:46",1
"17/06/27","23:50",0.0,21.7,89.9,1006.4,278.0,0.8,1.1,274.3,0.00,20.0,23.5,"23:40:02",1
"17/06/27","24:00",0.0,21.6,90.5,1006.4,298.9,0.8,1.7,304.0,0.00,20.0,23.3,"23:55:12",1
